TimeEST,TemperatureF,Dew PointF,Humidity,Sea Level PressureIn,VisibilityMPH,Wind Direction,Wind SpeedMPH,Gust SpeedMPH,PrecipitationIn,Events,Conditions,WindDirDegrees,DateUTC
12:35 AM,35.1,31.6,87,30.04,10.0,NE,6.9,-,N/A,,Overcast,40,2013-03-05 05:35:00
12:55 AM,35.1,32.0,89,30.03,10.0,NE,6.9,-,N/A,,Overcast,40,2013-03-05 05:55:00
1:15 AM,35.1,32.4,90,30.03,10.0,NE,5.8,-,N/A,,Overcast,50,2013-03-05 06:15:00
1:35 AM,35.1,32.9,92,30.03,10.0,NE,5.8,-,N/A,,Overcast,50,2013-03-05 06:35:00
1:55 AM,35.1,32.9,92,30.02,10.0,ENE,6.9,-,N/A,,Overcast,60,2013-03-05 06:55:00
2:15 AM,35.1,32.9,92,30.01,10.0,ENE,8.1,-,N/A,,Overcast,70,2013-03-05 07:15:00
2:35 AM,35.1,33.1,92,30.01,10.0,ENE,6.9,-,N/A,,Overcast,60,2013-03-05 07:35:00
2:55 AM,35.1,32.9,92,30.00,10.0,East,5.8,-,N/A,,Overcast,80,2013-03-05 07:55:00
3:15 AM,35.1,32.9,92,30.00,10.0,East,4.6,-,N/A,,Overcast,90,2013-03-05 08:15:00
3:35 AM,35.1,33.3,93,29.99,10.0,ENE,6.9,-,N/A,,Overcast,70,2013-03-05 08:35:00
3:55 AM,35.1,33.3,93,29.98,10.0,ENE,6.9,-,N/A,,Overcast,70,2013-03-05 08:55:00
4:15 AM,35.1,33.8,95,29.97,10.0,ENE,6.9,-,N/A,,Overcast,70,2013-03-05 09:15:00
4:35 AM,35.1,33.8,95,29.96,10.0,East,8.1,-,N/A,,Overcast,80,2013-03-05 09:35:00
4:55 AM,35.1,33.8,95,29.96,10.0,ENE,6.9,-,N/A,,Overcast,70,2013-03-05 09:55:00
5:15 AM,35.1,33.8,95,29.95,10.0,East,8.1,-,N/A,,Overcast,80,2013-03-05 10:15:00
5:35 AM,35.1,33.8,95,29.96,10.0,East,4.6,-,N/A,,Overcast,90,2013-03-05 10:35:00
5:55 AM,35.1,33.8,95,29.96,10.0,East,4.6,-,N/A,,Overcast,90,2013-03-05 10:55:00
6:15 AM,35.1,33.8,95,29.95,10.0,East,4.6,-,N/A,,Overcast,100,2013-03-05 11:15:00
6:35 AM,35.1,33.8,95,29.95,10.0,East,8.1,-,N/A,,Overcast,100,2013-03-05 11:35:00
6:55 AM,35.1,33.4,94,29.94,10.0,East,6.9,-,N/A,,Overcast,80,2013-03-05 11:55:00
7:15 AM,35.1,33.3,93,29.93,10.0,East,9.2,-,N/A,,Overcast,80,2013-03-05 12:15:00
7:35 AM,35.1,33.3,93,29.95,10.0,East,5.8,-,N/A,,Overcast,80,2013-03-05 12:35:00
8:15 AM,35.1,32.9,92,29.94,10.0,East,6.9,-,N/A,,Overcast,80,2013-03-05 13:15:00
8:35 AM,35.1,32.9,92,29.93,10.0,East,6.9,-,N/A,,Overcast,90,2013-03-05 13:35:00
8:55 AM,35.1,32.5,91,29.92,10.0,East,9.2,-,N/A,,Overcast,90,2013-03-05 13:55:00
9:15 AM,35.1,32.4,90,29.92,10.0,East,9.2,-,N/A,,Overcast,80,2013-03-05 14:15:00
9:35 AM,35.1,32.2,89,29.91,10.0,East,10.4,-,N/A,,Mostly Cloudy,80,2013-03-05 14:35:00
9:55 AM,35.6,32.4,88,29.90,10.0,East,9.2,-,N/A,,Mostly Cloudy,90,2013-03-05 14:55:00
10:15 AM,37.6,34.0,87,29.89,10.0,East,9.2,-,N/A,,Overcast,90,2013-03-05 15:15:00
10:35 AM,37.6,33.3,84,29.87,10.0,East,11.5,-,N/A,,Overcast,80,2013-03-05 15:35:00
10:55 AM,37.6,33.4,85,29.87,10.0,East,11.5,-,N/A,,Overcast,90,2013-03-05 15:55:00
11:15 AM,37.6,33.3,84,29.87,10.0,East,5.8,-,N/A,,Overcast,100,2013-03-05 16:15:00
11:35 AM,37.6,33.4,85,29.85,10.0,East,8.1,-,N/A,,Overcast,90,2013-03-05 16:35:00
11:55 AM,37.6,33.3,84,29.83,10.0,East,9.2,-,N/A,,Overcast,90,2013-03-05 16:55:00
12:15 PM,37.6,32.7,83,29.81,10.0,East,8.1,-,N/A,,Overcast,90,2013-03-05 17:15:00
12:35 PM,37.6,32.5,82,29.80,10.0,East,9.2,-,N/A,,Overcast,80,2013-03-05 17:35:00
12:55 PM,37.6,32.9,83,29.79,10.0,ENE,10.4,-,N/A,,Overcast,70,2013-03-05 17:55:00
1:15 PM,36.0,33.6,91,29.77,3.0,East,11.5,16.1,N/A,,Overcast,90,2013-03-05 18:15:00
1:35 PM,35.1,33.4,94,29.75,5.0,East,8.1,-,N/A,,Overcast,80,2013-03-05 18:35:00
1:55 PM,35.1,34.3,97,29.74,5.0,East,6.9,-,N/A,,Overcast,80,2013-03-05 18:55:00
2:15 PM,35.1,34.7,99,29.72,4.0,ENE,8.1,-,N/A,,Overcast,70,2013-03-05 19:15:00
2:35 PM,35.1,34.9,99,29.71,2.5,ENE,3.5,9.2,N/A,Snow,Light Snow,60,2013-03-05 19:35:00
2:55 PM,35.1,34.9,99,29.70,2.5,ENE,6.9,-,N/A,Snow,Light Snow,60,2013-03-05 19:55:00
3:15 PM,35.1,35.1,100,29.69,2.5,ENE,5.8,-,N/A,,Overcast,70,2013-03-05 20:15:00
3:35 PM,35.1,35.1,100,29.67,2.0,ENE,8.1,-,N/A,Snow,Light Snow,70,2013-03-05 20:35:00
3:55 PM,35.1,35.1,100,29.66,2.5,ENE,6.9,-,N/A,,Overcast,70,2013-03-05 20:55:00
4:15 PM,35.1,35.1,100,29.65,1.8,ENE,5.8,-,N/A,Snow,Light Snow,60,2013-03-05 21:15:00
4:35 PM,35.1,35.1,100,29.64,2.0,NE,6.9,-,N/A,Snow,Light Snow,50,2013-03-05 21:35:00
4:55 PM,35.2,35.2,100,29.63,2.0,NE,6.9,-,N/A,Snow,Light Snow,50,2013-03-05 21:55:00
5:15 PM,35.6,35.6,100,29.62,3.0,ENE,6.9,-,N/A,Snow,Light Snow,60,2013-03-05 22:15:00
5:35 PM,35.6,35.6,100,29.61,4.0,NE,5.8,-,N/A,Snow,Light Snow,50,2013-03-05 22:35:00
5:55 PM,35.6,35.6,100,29.61,2.5,NE,4.6,-,N/A,Snow,Light Snow,40,2013-03-05 22:55:00
6:15 PM,35.6,35.6,100,29.62,2.5,North,3.5,-,N/A,Snow,Light Snow,350,2013-03-05 23:15:00
6:35 PM,35.6,35.6,100,29.61,4.0,NNE,4.6,-,N/A,Snow,Light Snow,30,2013-03-05 23:35:00
6:55 PM,35.2,35.2,100,29.63,3.0,Calm,Calm,-,N/A,Snow,Light Snow,0,2013-03-05 23:55:00
7:15 PM,35.1,35.1,100,29.63,4.0,Calm,Calm,-,N/A,Snow,Light Snow,0,2013-03-06 00:15:00
7:35 PM,35.1,35.1,100,29.63,4.0,NW,3.5,-,N/A,Snow,Light Snow,320,2013-03-06 00:35:00
7:55 PM,34.0,34.0,100,29.63,3.0,NNW,4.6,-,N/A,Snow,Light Snow,330,2013-03-06 00:55:00
8:15 PM,32.5,32.5,100,29.62,3.0,Calm,Calm,-,N/A,Snow,Light Snow,0,2013-03-06 01:15:00
8:35 PM,32.5,32.5,100,29.62,1.5,Calm,Calm,-,N/A,Snow,Light Snow,0,2013-03-06 01:35:00
8:55 PM,32.5,32.5,100,29.63,1.0,West,4.6,-,N/A,Snow,Snow,260,2013-03-06 01:55:00
9:15 PM,32.5,32.5,100,29.62,1.0,West,4.6,-,N/A,Snow,Snow,280,2013-03-06 02:15:00
9:35 PM,32.5,32.5,100,29.63,1.2,NW,3.5,-,N/A,Snow,Light Snow,310,2013-03-06 02:35:00
9:55 PM,32.5,32.5,100,29.63,1.0,WSW,3.5,-,N/A,Snow,Snow,240,2013-03-06 02:55:00
10:15 PM,32.5,32.5,100,29.63,1.0,West,4.6,-,N/A,Snow,Snow,260,2013-03-06 03:15:00
10:35 PM,32.5,32.5,100,29.63,1.2,West,5.8,-,N/A,Snow,Light Snow,260,2013-03-06 03:35:00
10:55 PM,32.5,32.5,100,29.63,1.2,West,5.8,-,N/A,Snow,Light Snow,270,2013-03-06 03:55:00
11:15 PM,32.5,32.5,100,29.63,1.2,WNW,4.6,-,N/A,Snow,Light Snow,290,2013-03-06 04:15:00
11:35 PM,32.5,32.5,100,29.63,1.2,NW,3.5,-,N/A,Snow,Snow,310,2013-03-06 04:35:00
11:55 PM,32.5,32.5,100,29.64,1.2,NW,8.1,-,N/A,Snow,Snow,310,2013-03-06 04:55:00